This is the latest recevied weather packets stored in our database for station/object PA5MB-15. If no packets are shown the sender has not sent any weather packets the latest 10 day(s).
| Time | Temp. | Humidity | Pressure | Rain* | Wind** | Luminosity | Snow |
|---|---|---|---|---|---|---|---|
| 1778085025 | 12.78° C | 65% | 1011.4 hPa | 0 mm | - | 7 W/m² | - |
| 1778084759 | 12.78° C | 65% | 1011.4 hPa | 0 mm | - | 8 W/m² | - |
| 1778084430 | 12.78° C | 65% | 1011.4 hPa | 0 mm | - | 7 W/m² | - |
| 1778084130 | 12.78° C | 65% | 1011.4 hPa | 0 mm | - | 8 W/m² | - |
| 1778083867 | 12.78° C | 64% | 1011.4 hPa | 0 mm | - | 8 W/m² | - |
| 1778083530 | 12.78° C | 64% | 1011.4 hPa | 0 mm | - | 9 W/m² | - |
| 1778083224 | 12.78° C | 63% | 1011.4 hPa | 0 mm | - | 10 W/m² | - |
| 1778082930 | 13.33° C | 62% | 1011.4 hPa | 0 mm | - | 12 W/m² | - |
| 1778082630 | 12.78° C | 62% | 1011.4 hPa | 0 mm | - | 14 W/m² | - |
| 1778082334 | 13.33° C | 61% | 1011.4 hPa | 0 mm | - | 15 W/m² | - |
| 1778082025 | 13.33° C | 61% | 1011.4 hPa | 0 mm | - | 14 W/m² | - |
| 1778081730 | 13.33° C | 62% | 1011.4 hPa | 0 mm | - | 15 W/m² | - |
| 1778081442 | 13.33° C | 61% | 1011.4 hPa | 0 mm | - | 16 W/m² | - |
| 1778081130 | 13.33° C | 61% | 1011.4 hPa | 0 mm | - | 17 W/m² | - |
| 1778080830 | 13.33° C | 60% | 1011.4 hPa | 0 mm | - | 19 W/m² | - |
| 1778080530 | 13.89° C | 59% | 1011.3 hPa | 0 mm | - | 24 W/m² | - |
| 1778080225 | 13.89° C | 58% | 1011.3 hPa | 0 mm | - | 25 W/m² | - |
| 1778079933 | 13.89° C | 57% | 1011.2 hPa | 0 mm | - | 26 W/m² | - |
| 1778079634 | 13.89° C | 58% | 1011.2 hPa | 0 mm | - | 29 W/m² | - |
| 1778079330 | 13.89° C | 57% | 1011.2 hPa | 0 mm | - | 32 W/m² | - |
| 1778079042 | 14.44° C | 56% | 1011.1 hPa | 0 mm | - | 33 W/m² | - |
| 1778078730 | 14.44° C | 56% | 1011 hPa | 0 mm | - | 35 W/m² | - |
| 1778078430 | 13.89° C | 56% | 1011.1 hPa | 0 mm | - | 41 W/m² | - |
| 1778078130 | 13.89° C | 56% | 1011.1 hPa | 0 mm | - | 37 W/m² | - |
| 1778077826 | 13.89° C | 57% | 1011.1 hPa | 0 mm | - | 34 W/m² | - |
* Rain latest hour (hover to see other rain measurements)
** Current wind speed in m/s (hover to see current wind gust speed)